#timestamp,LO_Frequency,Hit,StdDev 
1634940015.1,286047004.2,N
1634940035.9,286047004.1,N
1634940055.7,286047005.5,N
1634940075.5,286047004.2,N
1634940095.4,286047003.3,N
1634940115.2,286047005.5,N
1634940135.0,286047005.8,N
1634940135.9,286047005.8,N
1634940155.8,286047004.2,N
1634940175.6,286047004.0,N
1634940195.5,286047005.2,N
1634940215.3,286047004.7,N
1634940235.1,286047009.6,Y
1634940255.9,286047007.1,P
1634940275.7,286047003.0,N
1634940295.6,286047001.8,N
1634940315.4,286047002.5,N
1634940335.2,286047001.7,N
1634940355.1,286047003.9,N
1634940356.0,286047003.9,N
1634940375.8,286047001.6,N
1634940395.6,286047003.8,N
1634940415.5,286047005.1,Y
1634940435.3,286047001.7,P
1634940455.2,286047001.9,N
1634940475.9,286047003.7,P
1634940495.7,286047007.6,Y
1634940515.6,286047007.6,P
1634940535.4,286047006.2,N
1634940555.3,286047007.4,P
1634940575.1,286047003.6,N
1634940576.0,286047003.6,N
1634940595.8,286047002.1,N
1634940615.7,286047005.6,N
1634940635.5,286047003.2,N
1634940655.3,286047005.8,N
1634940675.2,286047006.1,Y
1634940695.0,286046999.9,P
1634940695.9,286046999.9,N
1634940715.8,286046996.5,N
1634940735.6,286046997.3,N
1634940755.4,286046996.4,N
1634940775.3,286046996.7,N
1634940795.1,286046996.7,N
1634940815.9,286046995.4,N
1634940835.7,286046997.4,N
1634940855.5,286046997.8,N
1634940875.4,286046997.2,N
1634940895.2,286046997.8,N
1634940915.0,286046996.7,N
1634940915.9,286046996.7,N
1634940935.8,286046999.2,N
1634940955.6,286046994.9,N
1634940975.5,286046996.3,N
1634940995.3,286046997.5,N
1634941015.1,286046996.6,N
1634941035.9,286046998.4,N
1634941055.7,286046998.2,N
1634941075.5,286047000.4,N
1634941095.4,286047000.3,N
1634941115.2,286046998.1,N
1634941135.1,286047001.0,N
1634941136.0,286047001.0,N
1634941155.8,286047002.4,N
1634941175.6,286047002.6,N
1634941195.5,286047004.4,N
1634941215.3,286047002.4,N
1634941235.2,286047000.4,N
1634941255.9,286046996.6,N
1634941275.7,286046997.0,N
1634941295.6,286046998.6,N
1634941315.4,286047000.6,N
1634941335.2,286046999.8,N
1634941355.1,286047001.2,N
1634941356.0,286047011.9,Y
1634941375.8,286047000.4,P
1634941395.7,286047001.2,N
1634941415.5,286046998.4,N
1634941435.3,286047002.0,N
1634941455.2,286047002.2,N
1634941475.0,286047001.6,N
1634941475.9,286047001.6,N
1634941495.7,286047004.4,Y
1634941515.6,286047003.6,P
1634941535.4,286047001.8,N
1634941555.3,286047002.5,N
1634941575.1,286047004.1,Y
1634941595.8,286046999.2,P
1634941615.7,286046997.8,N
1634941635.5,286046995.0,N
1634941655.4,286046996.6,N
1634941675.2,286046999.5,N
1634941695.0,286046998.3,N
1634941695.9,286046998.3,N
1634941715.8,286047001.0,N
1634941735.6,286047002.1,N
1634941755.4,286047001.7,N
1634941775.3,286047001.3,N
1634941795.1,286047001.8,N
1634941815.9,286047000.8,N
1634941835.7,286046998.8,N
1634941855.5,286046998.2,N
1634941875.4,286046998.2,N
1634941895.2,286046999.9,N
1634941915.0,286046999.2,N
1634941915.9,286046999.2,N
1634941935.8,286046998.8,N
1634941955.6,286047000.8,N
1634941975.5,286047002.2,N
1634941995.3,286046998.2,N
1634942015.1,286047000.6,N
1634942035.9,286046999.9,N
1634942055.7,286047000.2,N
1634942075.5,286047004.0,N
1634942095.4,286047002.6,N
1634942115.2,286046996.5,N
1634942135.1,286046998.8,N
1634942136.0,286046998.8,N
1634942155.8,286046998.2,N
1634942175.6,286046996.5,N
1634942195.5,286046997.0,N
1634942215.3,286046996.5,N
1634942235.1,286046996.5,N
1634942255.9,286047000.3,N
1634942275.7,286046999.7,N
1634942295.6,286047002.7,N
1634942315.4,286046996.8,N
1634942335.2,286046997.2,N
1634942355.1,286046997.5,N
1634942356.0,286046997.5,N
1634942375.8,286046998.7,N
1634942395.7,286046997.4,N
1634942415.5,286046993.3,Y
1634942435.3,286046999.1,P
1634942455.2,286046998.4,P
1634942475.0,286046998.1,P
1634942475.9,286046998.1,Y
1634942495.8,286047000.3,P
1634942515.6,286046999.9,N
1634942535.4,286047002.1,N
1634942555.3,286047003.5,N
1634942575.1,286047005.1,N
1634942595.9,286047005.3,N
1634942615.7,286047006.4,N
1634942635.5,286047006.2,N
1634942655.4,286047006.2,N
1634942675.2,286047009.1,Y
1634942695.1,286047001.3,P
1634942696.0,286047001.3,N
1634942715.8,286047004.1,P
1634942735.6,286047002.2,N
1634942755.5,286047005.9,Y
1634942775.3,286046999.9,P
1634942795.1,286047002.4,N
1634942815.9,286047004.0,P
1634942835.7,286047004.2,N
1634942855.6,286047001.1,N
1634942875.4,286047002.4,N
1634942895.2,286047003.3,N
1634942915.1,286047005.2,Y
1634942916.0,286047005.2,P
1634942935.8,286047001.4,N
1634942955.7,286047000.4,N
1634942975.5,286047000.5,N
1634942995.3,286047002.7,N
1634943015.2,286047002.0,N
1634943035.0,286047000.5,N
1634943035.9,286047000.5,N
1634943055.8,286046995.1,Y
1634943075.6,286046994.5,P
1634943095.4,286046995.2,N
1634943115.3,286046993.4,N
1634943135.1,286046994.2,N
1634943155.9,286046992.0,N
1634943175.7,286046994.1,N
1634943195.5,286046993.7,N
1634943215.4,286046995.3,N
1634943235.2,286046999.3,N
1634943255.0,286046995.7,N
1634943256.0,286046995.7,N
1634943275.8,286046995.7,N
1634943295.6,286046994.1,N
1634943315.5,286046995.8,N
1634943335.3,286046993.4,N
1634943355.1,286046995.8,N
1634943375.9,286046996.0,N
1634943395.7,286046995.5,N
1634943415.6,286046997.7,N
1634943435.4,286046999.1,N
1634943455.2,286046998.3,N
1634943475.1,286047000.4,N
1634943476.0,286047000.4,N
1634943495.8,286047000.9,N
1634943515.6,286046997.0,N
1634943535.5,286046999.4,N
1634943555.3,286046998.5,N
1634943575.2,286046998.6,N
1634943595.9,286046998.5,N
